iso_date,epoch_date,Year,Hour,Min,DOY,POS_DOY,Lat,Lon,BP,Ts,Ta,has_bp,has_ts,has_ta,BuoyID,Buoy_Type,Buoy_Owner,Logistics,Hemisphere
2020-02-03T00:00:00Z,1580688000,2020,0,0,34.0,34.0,-77.223,-161.024,-999.00,-1.46,-999.0,no,yes,no,300234068240480,SVPGHI,AOML,LAURA_BASSI,South
2020-02-03T01:00:02Z,1580691603,2020,1,0,34.0417,34.0417,-77.229,-161.023,-999.00,-1.63,-999.0,no,yes,no,300234068240480,SVPGHI,AOML,LAURA_BASSI,South
2020-02-03T01:59:57Z,1580695197,2020,2,0,34.0833,34.0833,-77.232,-161.024,-999.00,-1.59,-999.0,no,yes,no,300234068240480,SVPGHI,AOML,LAURA_BASSI,South
2020-02-03T03:00:00Z,1580698800,2020,3,0,34.125,34.125,-77.232,-161.031,-999.00,-1.57,-999.0,no,yes,no,300234068240480,SVPGHI,AOML,LAURA_BASSI,South
2020-02-03T04:00:02Z,1580702403,2020,4,0,34.1667,34.1667,-77.23,-161.046,-999.00,-1.1,-999.0,no,yes,no,300234068240480,SVPGHI,AOML,LAURA_BASSI,South
2020-02-03T04:59:57Z,1580705997,2020,5,0,34.2083,34.2083,-77.228,-161.075,-999.00,-1.09,-999.0,no,yes,no,300234068240480,SVPGHI,AOML,LAURA_BASSI,South
2020-02-03T06:00:00Z,1580709600,2020,6,0,34.25,34.25,-77.226,-161.104,-999.00,-1.04,-999.0,no,yes,no,300234068240480,SVPGHI,AOML,LAURA_BASSI,South
2020-02-03T07:00:02Z,1580713203,2020,7,0,34.2917,34.2917,-77.226,-161.141,-999.00,-1.03,-999.0,no,yes,no,300234068240480,SVPGHI,AOML,LAURA_BASSI,South
2020-02-03T07:59:57Z,1580716797,2020,8,0,34.3333,34.3333,-77.229,-161.172,-999.00,-1.24,-999.0,no,yes,no,300234068240480,SVPGHI,AOML,LAURA_BASSI,South
2020-02-03T09:00:00Z,1580720400,2020,9,0,34.375,34.375,-77.234,-161.206,-999.00,-1.1,-999.0,no,yes,no,300234068240480,SVPGHI,AOML,LAURA_BASSI,South
2020-02-03T10:00:02Z,1580724003,2020,10,0,34.4167,34.4167,-77.241,-161.233,-999.00,-1.16,-999.0,no,yes,no,300234068240480,SVPGHI,AOML,LAURA_BASSI,South
2020-02-03T10:59:57Z,1580727597,2020,11,0,34.4583,34.4583,-77.25,-161.249,-999.00,-1.09,-999.0,no,yes,no,300234068240480,SVPGHI,AOML,LAURA_BASSI,South
2020-02-03T12:00:00Z,1580731200,2020,12,0,34.5,34.5,-77.256,-161.25,-999.00,-1.1,-999.0,no,yes,no,300234068240480,SVPGHI,AOML,LAURA_BASSI,South
2020-02-03T13:00:02Z,1580734803,2020,13,0,34.5417,34.5417,-77.261,-161.242,-999.00,-1.08,-999.0,no,yes,no,300234068240480,SVPGHI,AOML,LAURA_BASSI,South
2020-02-03T13:59:57Z,1580738397,2020,14,0,34.5833,34.5833,-77.264,-161.238,-999.00,-1.07,-999.0,no,yes,no,300234068240480,SVPGHI,AOML,LAURA_BASSI,South
2020-02-03T15:00:00Z,1580742000,2020,15,0,34.625,34.625,-77.265,-161.235,-999.00,-1.38,-999.0,no,yes,no,300234068240480,SVPGHI,AOML,LAURA_BASSI,South
2020-02-03T16:00:02Z,1580745603,2020,16,0,34.6667,34.6667,-77.267,-161.236,-999.00,-1.12,-999.0,no,yes,no,300234068240480,SVPGHI,AOML,LAURA_BASSI,South
2020-02-03T16:59:57Z,1580749197,2020,17,0,34.7083,34.7083,-77.269,-161.238,-999.00,-1.06,-999.0,no,yes,no,300234068240480,SVPGHI,AOML,LAURA_BASSI,South
2020-02-03T18:00:00Z,1580752800,2020,18,0,34.75,34.75,-77.272,-161.239,-999.00,-0.97,-999.0,no,yes,no,300234068240480,SVPGHI,AOML,LAURA_BASSI,South
2020-02-03T19:00:02Z,1580756403,2020,19,0,34.7917,34.7917,-77.275,-161.248,-999.00,-0.96,-999.0,no,yes,no,300234068240480,SVPGHI,AOML,LAURA_BASSI,South
2020-02-03T19:59:57Z,1580759997,2020,20,0,34.8333,34.8333,-77.281,-161.25,-999.00,-0.96,-999.0,no,yes,no,300234068240480,SVPGHI,AOML,LAURA_BASSI,South
2020-02-03T21:00:00Z,1580763600,2020,21,0,34.875,34.875,-77.285,-161.24,-999.00,-0.95,-999.0,no,yes,no,300234068240480,SVPGHI,AOML,LAURA_BASSI,South
2020-02-03T22:00:02Z,1580767203,2020,22,0,34.9167,34.9167,-77.289,-161.229,-999.00,-1.01,-999.0,no,yes,no,300234068240480,SVPGHI,AOML,LAURA_BASSI,South
2020-02-03T22:59:57Z,1580770797,2020,23,0,34.9583,34.9583,-77.292,-161.219,-999.00,-1.15,-999.0,no,yes,no,300234068240480,SVPGHI,AOML,LAURA_BASSI,South
2020-02-04T00:00:00Z,1580774400,2020,0,0,35.0,35.0,-77.296,-161.207,-999.00,-0.99,-999.0,no,yes,no,300234068240480,SVPGHI,AOML,LAURA_BASSI,South
2020-02-04T01:00:02Z,1580778003,2020,1,0,35.0417,35.0417,-77.299,-161.206,-999.00,-1.04,-999.0,no,yes,no,300234068240480,SVPGHI,AOML,LAURA_BASSI,South
2020-02-04T01:59:57Z,1580781597,2020,2,0,35.0833,35.0833,-77.3,-161.204,-999.00,-0.94,-999.0,no,yes,no,300234068240480,SVPGHI,AOML,LAURA_BASSI,South
2020-02-04T03:00:00Z,1580785200,2020,3,0,35.125,35.125,-77.3,-161.214,-999.00,-1.06,-999.0,no,yes,no,300234068240480,SVPGHI,AOML,LAURA_BASSI,South
2020-02-04T04:00:02Z,1580788803,2020,4,0,35.1667,35.1667,-77.297,-161.223,-999.00,-1.26,-999.0,no,yes,no,300234068240480,SVPGHI,AOML,LAURA_BASSI,South
2020-02-04T04:59:57Z,1580792397,2020,5,0,35.2083,35.2083,-77.294,-161.226,-999.00,-1.15,-999.0,no,yes,no,300234068240480,SVPGHI,AOML,LAURA_BASSI,South
2020-02-04T06:00:00Z,1580796000,2020,6,0,35.25,35.25,-77.291,-161.231,-999.00,-1.17,-999.0,no,yes,no,300234068240480,SVPGHI,AOML,LAURA_BASSI,South
2020-02-04T07:00:02Z,1580799603,2020,7,0,35.2917,35.2917,-77.29,-161.233,-999.00,-1.32,-999.0,no,yes,no,300234068240480,SVPGHI,AOML,LAURA_BASSI,South
2020-02-04T07:59:57Z,1580803197,2020,8,0,35.3333,35.3333,-77.289,-161.241,-999.00,-1.45,-999.0,no,yes,no,300234068240480,SVPGHI,AOML,LAURA_BASSI,South
2020-02-04T09:00:00Z,1580806800,2020,9,0,35.375,35.375,-77.285,-161.252,-999.00,-0.85,-999.0,no,yes,no,300234068240480,SVPGHI,AOML,LAURA_BASSI,South
2020-02-04T10:00:02Z,1580810403,2020,10,0,35.4167,35.4167,-77.281,-161.262,-999.00,-1.82,-999.0,no,yes,no,300234068240480,SVPGHI,AOML,LAURA_BASSI,South
2020-02-04T10:59:57Z,1580813997,2020,11,0,35.4583,35.4583,-77.276,-161.271,-999.00,-1.06,-999.0,no,yes,no,300234068240480,SVPGHI,AOML,LAURA_BASSI,South
2020-02-04T12:00:00Z,1580817600,2020,12,0,35.5,35.5,-77.271,-161.285,-999.00,-1.21,-999.0,no,yes,no,300234068240480,SVPGHI,AOML,LAURA_BASSI,South
2020-02-04T13:00:02Z,1580821203,2020,13,0,35.5417,35.5417,-77.265,-161.293,-999.00,-0.93,-999.0,no,yes,no,300234068240480,SVPGHI,AOML,LAURA_BASSI,South
2020-02-04T13:59:57Z,1580824797,2020,14,0,35.5833,35.5833,-77.259,-161.304,-999.00,-0.88,-999.0,no,yes,no,300234068240480,SVPGHI,AOML,LAURA_BASSI,South
2020-02-04T15:05:02Z,1580828702,2020,15,5,35.6285,35.6285,-90.0,-180.0,-999.00,-0.85,-999.0,no,yes,no,300234068240480,SVPGHI,AOML,LAURA_BASSI,South
2020-02-04T15:59:02Z,1580831942,2020,15,59,35.666,35.666,-77.245,-161.328,-999.00,-0.84,-999.0,no,yes,no,300234068240480,SVPGHI,AOML,LAURA_BASSI,South
2020-02-04T16:59:57Z,1580835597,2020,17,0,35.7083,35.7083,-77.235,-161.341,-999.00,-0.72,-999.0,no,yes,no,300234068240480,SVPGHI,AOML,LAURA_BASSI,South
2020-02-04T18:00:00Z,1580839200,2020,18,0,35.75,35.75,-77.229,-161.358,-999.00,-0.74,-999.0,no,yes,no,300234068240480,SVPGHI,AOML,LAURA_BASSI,South
2020-02-04T19:00:02Z,1580842803,2020,19,0,35.7917,35.7917,-77.222,-161.379,-999.00,-0.98,-999.0,no,yes,no,300234068240480,SVPGHI,AOML,LAURA_BASSI,South
2020-02-04T19:59:57Z,1580846397,2020,20,0,35.8333,35.8333,-77.214,-161.399,-999.00,-0.82,-999.0,no,yes,no,300234068240480,SVPGHI,AOML,LAURA_BASSI,South
2020-02-04T21:00:00Z,1580850000,2020,21,0,35.875,35.875,-77.204,-161.417,-999.00,-0.8,-999.0,no,yes,no,300234068240480,SVPGHI,AOML,LAURA_BASSI,South
2020-02-04T22:00:02Z,1580853603,2020,22,0,35.9167,35.9167,-77.194,-161.441,-999.00,-1.06,-999.0,no,yes,no,300234068240480,SVPGHI,AOML,LAURA_BASSI,South
2020-02-04T22:59:57Z,1580857197,2020,23,0,35.9583,35.9583,-77.184,-161.473,-999.00,-0.97,-999.0,no,yes,no,300234068240480,SVPGHI,AOML,LAURA_BASSI,South
2020-02-05T00:00:00Z,1580860800,2020,0,0,36.0,36.0,-77.176,-161.506,-999.00,-1.14,-999.0,no,yes,no,300234068240480,SVPGHI,AOML,LAURA_BASSI,South
2020-02-05T01:00:02Z,1580864403,2020,1,0,36.0417,36.0417,-77.17,-161.531,-999.00,-0.95,-999.0,no,yes,no,300234068240480,SVPGHI,AOML,LAURA_BASSI,South
2020-02-05T01:59:57Z,1580867997,2020,2,0,36.0833,36.0833,-77.165,-161.551,-999.00,-1.02,-999.0,no,yes,no,300234068240480,SVPGHI,AOML,LAURA_BASSI,South
2020-02-05T03:00:00Z,1580871600,2020,3,0,36.125,36.125,-77.16,-161.566,-999.00,-0.95,-999.0,no,yes,no,300234068240480,SVPGHI,AOML,LAURA_BASSI,South
2020-02-05T04:00:02Z,1580875203,2020,4,0,36.1667,36.1667,-77.15,-161.576,-999.00,-1.0,-999.0,no,yes,no,300234068240480,SVPGHI,AOML,LAURA_BASSI,South
2020-02-05T04:59:57Z,1580878797,2020,5,0,36.2083,36.2083,-77.14,-161.588,-999.00,-0.99,-999.0,no,yes,no,300234068240480,SVPGHI,AOML,LAURA_BASSI,South
2020-02-05T06:00:00Z,1580882400,2020,6,0,36.25,36.25,-77.129,-161.62,-999.00,-0.98,-999.0,no,yes,no,300234068240480,SVPGHI,AOML,LAURA_BASSI,South
2020-02-05T07:00:02Z,1580886003,2020,7,0,36.2917,36.2917,-77.118,-161.658,-999.00,-0.98,-999.0,no,yes,no,300234068240480,SVPGHI,AOML,LAURA_BASSI,South
2020-02-05T07:59:57Z,1580889597,2020,8,0,36.3333,36.3333,-77.108,-161.68,-999.00,-0.97,-999.0,no,yes,no,300234068240480,SVPGHI,AOML,LAURA_BASSI,South
2020-02-05T09:00:00Z,1580893200,2020,9,0,36.375,36.375,-77.101,-161.71,-999.00,-1.0,-999.0,no,yes,no,300234068240480,SVPGHI,AOML,LAURA_BASSI,South
2020-02-05T10:00:02Z,1580896803,2020,10,0,36.4167,36.4167,-77.095,-161.745,-999.00,-1.01,-999.0,no,yes,no,300234068240480,SVPGHI,AOML,LAURA_BASSI,South
2020-02-05T10:59:57Z,1580900397,2020,11,0,36.4583,36.4583,-77.086,-161.782,-999.00,-0.99,-999.0,no,yes,no,300234068240480,SVPGHI,AOML,LAURA_BASSI,South
2020-02-05T12:00:00Z,1580904000,2020,12,0,36.5,36.5,-77.079,-161.802,-999.00,-0.99,-999.0,no,yes,no,300234068240480,SVPGHI,AOML,LAURA_BASSI,South
2020-02-05T13:00:02Z,1580907603,2020,13,0,36.5417,36.5417,-77.071,-161.832,-999.00,-1.01,-999.0,no,yes,no,300234068240480,SVPGHI,AOML,LAURA_BASSI,South
2020-02-05T13:59:57Z,1580911197,2020,14,0,36.5833,36.5833,-77.064,-161.879,-999.00,-1.02,-999.0,no,yes,no,300234068240480,SVPGHI,AOML,LAURA_BASSI,South
2020-02-05T15:00:00Z,1580914800,2020,15,0,36.625,36.625,-77.057,-161.919,-999.00,-1.02,-999.0,no,yes,no,300234068240480,SVPGHI,AOML,LAURA_BASSI,South
2020-02-05T16:00:02Z,1580918403,2020,16,0,36.6667,36.6667,-77.051,-161.957,-999.00,-1.03,-999.0,no,yes,no,300234068240480,SVPGHI,AOML,LAURA_BASSI,South
2020-02-05T16:59:57Z,1580921997,2020,17,0,36.7083,36.7083,-77.048,-161.988,-999.00,-1.02,-999.0,no,yes,no,300234068240480,SVPGHI,AOML,LAURA_BASSI,South
2020-02-05T19:00:02Z,1580929203,2020,19,0,36.7917,36.7917,-77.037,-162.031,-999.00,-1.07,-999.0,no,yes,no,300234068240480,SVPGHI,AOML,LAURA_BASSI,South
2020-02-05T19:59:57Z,1580932797,2020,20,0,36.8333,36.8333,-77.031,-162.06,-999.00,-1.03,-999.0,no,yes,no,300234068240480,SVPGHI,AOML,LAURA_BASSI,South
2020-02-05T21:00:00Z,1580936400,2020,21,0,36.875,36.875,-77.027,-162.081,-999.00,-1.05,-999.0,no,yes,no,300234068240480,SVPGHI,AOML,LAURA_BASSI,South
2020-02-05T22:00:02Z,1580940003,2020,22,0,36.9167,36.9167,-77.023,-162.106,-999.00,-1.0,-999.0,no,yes,no,300234068240480,SVPGHI,AOML,LAURA_BASSI,South
2020-02-05T22:59:57Z,1580943597,2020,23,0,36.9583,36.9583,-77.016,-162.133,-999.00,-1.03,-999.0,no,yes,no,300234068240480,SVPGHI,AOML,LAURA_BASSI,South
2020-02-06T00:00:00Z,1580947200,2020,0,0,37.0,37.0,-77.009,-162.168,-999.00,-1.05,-999.0,no,yes,no,300234068240480,SVPGHI,AOML,LAURA_BASSI,South
2020-02-06T01:00:02Z,1580950803,2020,1,0,37.0417,37.0417,-77.002,-162.205,-999.00,-1.1,-999.0,no,yes,no,300234068240480,SVPGHI,AOML,LAURA_BASSI,South
2020-02-06T01:59:57Z,1580954397,2020,2,0,37.0833,37.0833,-76.996,-162.241,-999.00,-1.08,-999.0,no,yes,no,300234068240480,SVPGHI,AOML,LAURA_BASSI,South
2020-02-06T03:00:00Z,1580958000,2020,3,0,37.125,37.125,-76.99,-162.282,-999.00,-1.28,-999.0,no,yes,no,300234068240480,SVPGHI,AOML,LAURA_BASSI,South
2020-02-06T04:00:02Z,1580961603,2020,4,0,37.1667,37.1667,-76.987,-162.323,-999.00,-1.27,-999.0,no,yes,no,300234068240480,SVPGHI,AOML,LAURA_BASSI,South
2020-02-06T04:59:57Z,1580965197,2020,5,0,37.2083,37.2083,-76.982,-162.354,-999.00,-1.02,-999.0,no,yes,no,300234068240480,SVPGHI,AOML,LAURA_BASSI,South
2020-02-06T06:00:00Z,1580968800,2020,6,0,37.25,37.25,-76.975,-162.375,-999.00,-0.98,-999.0,no,yes,no,300234068240480,SVPGHI,AOML,LAURA_BASSI,South
2020-02-06T07:00:02Z,1580972403,2020,7,0,37.2917,37.2917,-76.964,-162.391,-999.00,-0.98,-999.0,no,yes,no,300234068240480,SVPGHI,AOML,LAURA_BASSI,South
2020-02-06T07:59:57Z,1580975997,2020,8,0,37.3333,37.3333,-76.951,-162.404,-999.00,-0.93,-999.0,no,yes,no,300234068240480,SVPGHI,AOML,LAURA_BASSI,South
2020-02-06T09:00:00Z,1580979600,2020,9,0,37.375,37.375,-76.937,-162.421,-999.00,-0.92,-999.0,no,yes,no,300234068240480,SVPGHI,AOML,LAURA_BASSI,South
2020-02-06T10:00:02Z,1580983203,2020,10,0,37.4167,37.4167,-76.923,-162.436,-999.00,-0.98,-999.0,no,yes,no,300234068240480,SVPGHI,AOML,LAURA_BASSI,South
2020-02-06T10:59:57Z,1580986797,2020,11,0,37.4583,37.4583,-76.912,-162.436,-999.00,-0.93,-999.0,no,yes,no,300234068240480,SVPGHI,AOML,LAURA_BASSI,South
2020-02-06T12:00:00Z,1580990400,2020,12,0,37.5,37.5,-76.902,-162.435,-999.00,-1.08,-999.0,no,yes,no,300234068240480,SVPGHI,AOML,LAURA_BASSI,South
2020-02-06T13:00:02Z,1580994003,2020,13,0,37.5417,37.5417,-76.891,-162.421,-999.00,-1.0,-999.0,no,yes,no,300234068240480,SVPGHI,AOML,LAURA_BASSI,South
2020-02-06T13:59:57Z,1580997597,2020,14,0,37.5833,37.5833,-76.876,-162.409,-999.00,-0.98,-999.0,no,yes,no,300234068240480,SVPGHI,AOML,LAURA_BASSI,South
2020-02-06T15:00:00Z,1581001200,2020,15,0,37.625,37.625,-76.862,-162.396,-999.00,-1.02,-999.0,no,yes,no,300234068240480,SVPGHI,AOML,LAURA_BASSI,South
2020-02-06T16:00:02Z,1581004803,2020,16,0,37.6667,37.6667,-76.848,-162.392,-999.00,-1.17,-999.0,no,yes,no,300234068240480,SVPGHI,AOML,LAURA_BASSI,South
2020-02-06T16:59:57Z,1581008397,2020,17,0,37.7083,37.7083,-76.837,-162.383,-999.00,-1.07,-999.0,no,yes,no,300234068240480,SVPGHI,AOML,LAURA_BASSI,South
2020-02-06T18:00:00Z,1581012000,2020,18,0,37.75,37.75,-76.826,-162.37,-999.00,-0.99,-999.0,no,yes,no,300234068240480,SVPGHI,AOML,LAURA_BASSI,South
2020-02-06T19:00:02Z,1581015603,2020,19,0,37.7917,37.7917,-76.816,-162.349,-999.00,-1.06,-999.0,no,yes,no,300234068240480,SVPGHI,AOML,LAURA_BASSI,South
2020-02-06T19:59:57Z,1581019197,2020,20,0,37.8333,37.8333,-76.806,-162.324,-999.00,-1.04,-999.0,no,yes,no,300234068240480,SVPGHI,AOML,LAURA_BASSI,South
2020-02-06T21:00:00Z,1581022800,2020,21,0,37.875,37.875,-76.8,-162.305,-999.00,-0.96,-999.0,no,yes,no,300234068240480,SVPGHI,AOML,LAURA_BASSI,South
2020-02-06T22:00:02Z,1581026403,2020,22,0,37.9167,37.9167,-76.794,-162.289,-999.00,-0.9,-999.0,no,yes,no,300234068240480,SVPGHI,AOML,LAURA_BASSI,South
2020-02-06T22:59:57Z,1581029997,2020,23,0,37.9583,37.9583,-76.783,-162.277,-999.00,-0.99,-999.0,no,yes,no,300234068240480,SVPGHI,AOML,LAURA_BASSI,South
2020-02-07T00:00:00Z,1581033600,2020,0,0,38.0,38.0,-76.773,-162.274,-999.00,-0.98,-999.0,no,yes,no,300234068240480,SVPGHI,AOML,LAURA_BASSI,South
2020-02-07T01:00:02Z,1581037203,2020,1,0,38.0417,38.0417,-76.764,-162.264,-999.00,-1.0,-999.0,no,yes,no,300234068240480,SVPGHI,AOML,LAURA_BASSI,South
2020-02-07T01:59:57Z,1581040797,2020,2,0,38.0833,38.0833,-76.757,-162.262,-999.00,-0.9,-999.0,no,yes,no,300234068240480,SVPGHI,AOML,LAURA_BASSI,South
2020-02-07T03:00:00Z,1581044400,2020,3,0,38.125,38.125,-76.75,-162.256,-999.00,-0.88,-999.0,no,yes,no,300234068240480,SVPGHI,AOML,LAURA_BASSI,South
2020-02-07T04:00:02Z,1581048003,2020,4,0,38.1667,38.1667,-76.744,-162.239,-999.00,-0.88,-999.0,no,yes,no,300234068240480,SVPGHI,AOML,LAURA_BASSI,South
2020-02-07T04:59:57Z,1581051597,2020,5,0,38.2083,38.2083,-76.737,-162.223,-999.00,-0.97,-999.0,no,yes,no,300234068240480,SVPGHI,AOML,LAURA_BASSI,South
2020-02-07T06:00:00Z,1581055200,2020,6,0,38.25,38.25,-76.729,-162.213,-999.00,-1.02,-999.0,no,yes,no,300234068240480,SVPGHI,AOML,LAURA_BASSI,South
2020-02-07T07:00:02Z,1581058803,2020,7,0,38.2917,38.2917,-76.721,-162.203,-999.00,-0.92,-999.0,no,yes,no,300234068240480,SVPGHI,AOML,LAURA_BASSI,South
2020-02-07T07:59:57Z,1581062397,2020,8,0,38.3333,38.3333,-76.711,-162.194,-999.00,-1.08,-999.0,no,yes,no,300234068240480,SVPGHI,AOML,LAURA_BASSI,South
2020-02-07T09:00:00Z,1581066000,2020,9,0,38.375,38.375,-76.704,-162.194,-999.00,-1.1,-999.0,no,yes,no,300234068240480,SVPGHI,AOML,LAURA_BASSI,South
2020-02-07T10:00:02Z,1581069603,2020,10,0,38.4167,38.4167,-76.697,-162.195,-999.00,-0.98,-999.0,no,yes,no,300234068240480,SVPGHI,AOML,LAURA_BASSI,South
2020-02-07T10:59:57Z,1581073197,2020,11,0,38.4583,38.4583,-76.694,-162.204,-999.00,-1.04,-999.0,no,yes,no,300234068240480,SVPGHI,AOML,LAURA_BASSI,South
2020-02-07T12:00:00Z,1581076800,2020,12,0,38.5,38.5,-76.689,-162.213,-999.00,-0.99,-999.0,no,yes,no,300234068240480,SVPGHI,AOML,LAURA_BASSI,South
2020-02-07T13:00:02Z,1581080403,2020,13,0,38.5417,38.5417,-76.687,-162.221,-999.00,-0.95,-999.0,no,yes,no,300234068240480,SVPGHI,AOML,LAURA_BASSI,South
2020-02-07T13:59:57Z,1581083997,2020,14,0,38.5833,38.5833,-76.684,-162.208,-999.00,-1.05,-999.0,no,yes,no,300234068240480,SVPGHI,AOML,LAURA_BASSI,South
2020-02-07T15:00:00Z,1581087600,2020,15,0,38.625,38.625,-76.68,-162.208,-999.00,-0.96,-999.0,no,yes,no,300234068240480,SVPGHI,AOML,LAURA_BASSI,South
2020-02-07T16:00:02Z,1581091203,2020,16,0,38.6667,38.6667,-76.677,-162.209,-999.00,-0.95,-999.0,no,yes,no,300234068240480,SVPGHI,AOML,LAURA_BASSI,South
2020-02-07T16:59:57Z,1581094797,2020,17,0,38.7083,38.7083,-76.674,-162.207,-999.00,-0.96,-999.0,no,yes,no,300234068240480,SVPGHI,AOML,LAURA_BASSI,South
2020-02-07T18:00:00Z,1581098400,2020,18,0,38.75,38.75,-76.668,-162.207,-999.00,-0.93,-999.0,no,yes,no,300234068240480,SVPGHI,AOML,LAURA_BASSI,South
2020-02-07T19:00:02Z,1581102003,2020,19,0,38.7917,38.7917,-76.663,-162.21,-999.00,-0.96,-999.0,no,yes,no,300234068240480,SVPGHI,AOML,LAURA_BASSI,South
2020-02-07T19:59:57Z,1581105597,2020,20,0,38.8333,38.8333,-76.657,-162.223,-999.00,-0.92,-999.0,no,yes,no,300234068240480,SVPGHI,AOML,LAURA_BASSI,South
2020-02-07T21:00:00Z,1581109200,2020,21,0,38.875,38.875,-76.652,-162.25,-999.00,-1.07,-999.0,no,yes,no,300234068240480,SVPGHI,AOML,LAURA_BASSI,South
2020-02-07T22:00:02Z,1581112803,2020,22,0,38.9167,38.9167,-76.649,-162.264,-999.00,-0.87,-999.0,no,yes,no,300234068240480,SVPGHI,AOML,LAURA_BASSI,South
2020-02-07T22:59:57Z,1581116397,2020,23,0,38.9583,38.9583,-76.648,-162.277,-999.00,-0.85,-999.0,no,yes,no,300234068240480,SVPGHI,AOML,LAURA_BASSI,South
2020-02-08T00:00:00Z,1581120000,2020,0,0,39.0,39.0,-76.646,-162.284,-999.00,-0.81,-999.0,no,yes,no,300234068240480,SVPGHI,AOML,LAURA_BASSI,South
2020-02-08T01:00:02Z,1581123603,2020,1,0,39.0417,39.0417,-76.645,-162.287,-999.00,-0.85,-999.0,no,yes,no,300234068240480,SVPGHI,AOML,LAURA_BASSI,South
2020-02-08T01:59:57Z,1581127197,2020,2,0,39.0833,39.0833,-76.643,-162.279,-999.00,-0.86,-999.0,no,yes,no,300234068240480,SVPGHI,AOML,LAURA_BASSI,South
2020-02-08T03:00:00Z,1581130800,2020,3,0,39.125,39.125,-76.64,-162.278,-999.00,-0.87,-999.0,no,yes,no,300234068240480,SVPGHI,AOML,LAURA_BASSI,South
2020-02-08T04:00:02Z,1581134403,2020,4,0,39.1667,39.1667,-76.636,-162.28,-999.00,-0.88,-999.0,no,yes,no,300234068240480,SVPGHI,AOML,LAURA_BASSI,South
2020-02-08T04:59:57Z,1581137997,2020,5,0,39.2083,39.2083,-76.634,-162.284,-999.00,-0.85,-999.0,no,yes,no,300234068240480,SVPGHI,AOML,LAURA_BASSI,South
2020-02-08T06:00:00Z,1581141600,2020,6,0,39.25,39.25,-76.631,-162.287,-999.00,-0.99,-999.0,no,yes,no,300234068240480,SVPGHI,AOML,LAURA_BASSI,South
2020-02-08T07:00:02Z,1581145203,2020,7,0,39.2917,39.2917,-76.629,-162.29,-999.00,-1.33,-999.0,no,yes,no,300234068240480,SVPGHI,AOML,LAURA_BASSI,South
2020-02-08T07:59:57Z,1581148797,2020,8,0,39.3333,39.3333,-76.625,-162.296,-999.00,-0.88,-999.0,no,yes,no,300234068240480,SVPGHI,AOML,LAURA_BASSI,South
2020-02-08T09:00:00Z,1581152400,2020,9,0,39.375,39.375,-76.623,-162.306,-999.00,-0.91,-999.0,no,yes,no,300234068240480,SVPGHI,AOML,LAURA_BASSI,South
2020-02-08T10:00:02Z,1581156003,2020,10,0,39.4167,39.4167,-76.621,-162.315,-999.00,-1.0,-999.0,no,yes,no,300234068240480,SVPGHI,AOML,LAURA_BASSI,South
2020-02-08T10:59:57Z,1581159597,2020,11,0,39.4583,39.4583,-76.62,-162.314,-999.00,-1.21,-999.0,no,yes,no,300234068240480,SVPGHI,AOML,LAURA_BASSI,South
2020-02-08T12:00:00Z,1581163200,2020,12,0,39.5,39.5,-76.617,-162.299,-999.00,-1.1,-999.0,no,yes,no,300234068240480,SVPGHI,AOML,LAURA_BASSI,South
2020-02-08T13:00:02Z,1581166803,2020,13,0,39.5417,39.5417,-76.613,-162.282,-999.00,-1.29,-999.0,no,yes,no,300234068240480,SVPGHI,AOML,LAURA_BASSI,South
2020-02-08T13:59:57Z,1581170397,2020,14,0,39.5833,39.5833,-76.607,-162.264,-999.00,-1.06,-999.0,no,yes,no,300234068240480,SVPGHI,AOML,LAURA_BASSI,South
2020-02-08T15:00:00Z,1581174000,2020,15,0,39.625,39.625,-76.6,-162.251,-999.00,-1.02,-999.0,no,yes,no,300234068240480,SVPGHI,AOML,LAURA_BASSI,South
2020-02-08T16:00:02Z,1581177603,2020,16,0,39.6667,39.6667,-76.592,-162.24,-999.00,-1.19,-999.0,no,yes,no,300234068240480,SVPGHI,AOML,LAURA_BASSI,South
2020-02-08T16:59:57Z,1581181197,2020,17,0,39.7083,39.7083,-76.585,-162.238,-999.00,-0.9,-999.0,no,yes,no,300234068240480,SVPGHI,AOML,LAURA_BASSI,South
2020-02-08T18:00:00Z,1581184800,2020,18,0,39.75,39.75,-76.577,-162.244,-999.00,-0.85,-999.0,no,yes,no,300234068240480,SVPGHI,AOML,LAURA_BASSI,South
2020-02-08T19:00:02Z,1581188403,2020,19,0,39.7917,39.7917,-76.57,-162.251,-999.00,-0.87,-999.0,no,yes,no,300234068240480,SVPGHI,AOML,LAURA_BASSI,South
2020-02-08T19:59:57Z,1581191997,2020,20,0,39.8333,39.8333,-76.565,-162.26,-999.00,-0.91,-999.0,no,yes,no,300234068240480,SVPGHI,AOML,LAURA_BASSI,South
2020-02-08T21:00:00Z,1581195600,2020,21,0,39.875,39.875,-76.56,-162.271,-999.00,-0.93,-999.0,no,yes,no,300234068240480,SVPGHI,AOML,LAURA_BASSI,South
2020-02-08T22:00:02Z,1581199203,2020,22,0,39.9167,39.9167,-76.558,-162.279,-999.00,-0.84,-999.0,no,yes,no,300234068240480,SVPGHI,AOML,LAURA_BASSI,South
2020-02-08T22:59:57Z,1581202797,2020,23,0,39.9583,39.9583,-76.557,-162.283,-999.00,-0.82,-999.0,no,yes,no,300234068240480,SVPGHI,AOML,LAURA_BASSI,South
2020-02-09T00:00:00Z,1581206400,2020,0,0,40.0,40.0,-76.556,-162.283,-999.00,-0.86,-999.0,no,yes,no,300234068240480,SVPGHI,AOML,LAURA_BASSI,South
2020-02-09T01:00:02Z,1581210003,2020,1,0,40.0417,40.0417,-76.556,-162.276,-999.00,-0.85,-999.0,no,yes,no,300234068240480,SVPGHI,AOML,LAURA_BASSI,South
2020-02-09T01:59:57Z,1581213597,2020,2,0,40.0833,40.0833,-76.556,-162.266,-999.00,-0.86,-999.0,no,yes,no,300234068240480,SVPGHI,AOML,LAURA_BASSI,South
2020-02-09T03:00:00Z,1581217200,2020,3,0,40.125,40.125,-76.555,-162.253,-999.00,-0.99,-999.0,no,yes,no,300234068240480,SVPGHI,AOML,LAURA_BASSI,South
2020-02-09T04:00:02Z,1581220803,2020,4,0,40.1667,40.1667,-76.554,-162.232,-999.00,-0.97,-999.0,no,yes,no,300234068240480,SVPGHI,AOML,LAURA_BASSI,South
2020-02-09T04:59:57Z,1581224397,2020,5,0,40.2083,40.2083,-76.553,-162.21,-999.00,-0.95,-999.0,no,yes,no,300234068240480,SVPGHI,AOML,LAURA_BASSI,South
2020-02-09T06:00:00Z,1581228000,2020,6,0,40.25,40.25,-76.553,-162.183,-999.00,-0.92,-999.0,no,yes,no,300234068240480,SVPGHI,AOML,LAURA_BASSI,South
2020-02-09T07:00:02Z,1581231603,2020,7,0,40.2917,40.2917,-76.553,-162.155,-999.00,-0.88,-999.0,no,yes,no,300234068240480,SVPGHI,AOML,LAURA_BASSI,South
2020-02-09T07:59:57Z,1581235197,2020,8,0,40.3333,40.3333,-76.554,-162.134,-999.00,-0.87,-999.0,no,yes,no,300234068240480,SVPGHI,AOML,LAURA_BASSI,South
2020-02-09T09:00:00Z,1581238800,2020,9,0,40.375,40.375,-76.555,-162.115,-999.00,-0.88,-999.0,no,yes,no,300234068240480,SVPGHI,AOML,LAURA_BASSI,South
2020-02-09T10:00:02Z,1581242403,2020,10,0,40.4167,40.4167,-76.554,-162.102,-999.00,-0.89,-999.0,no,yes,no,300234068240480,SVPGHI,AOML,LAURA_BASSI,South
2020-02-09T10:59:57Z,1581245997,2020,11,0,40.4583,40.4583,-76.555,-162.088,-999.00,-0.84,-999.0,no,yes,no,300234068240480,SVPGHI,AOML,LAURA_BASSI,South
2020-02-09T12:00:00Z,1581249600,2020,12,0,40.5,40.5,-76.557,-162.074,-999.00,-1.01,-999.0,no,yes,no,300234068240480,SVPGHI,AOML,LAURA_BASSI,South
2020-02-09T13:00:02Z,1581253203,2020,13,0,40.5417,40.5417,-76.555,-162.056,-999.00,-1.12,-999.0,no,yes,no,300234068240480,SVPGHI,AOML,LAURA_BASSI,South
2020-02-09T13:59:57Z,1581256797,2020,14,0,40.5833,40.5833,-76.555,-162.033,-999.00,-0.92,-999.0,no,yes,no,300234068240480,SVPGHI,AOML,LAURA_BASSI,South
2020-02-09T15:00:00Z,1581260400,2020,15,0,40.625,40.625,-76.555,-162.009,-999.00,-0.9,-999.0,no,yes,no,300234068240480,SVPGHI,AOML,LAURA_BASSI,South